sat.trackr.live / text

‹ back to catalog

STARLINK-34159

NORAD 63952 · 2025-099A

PAYLOAD ACTIVE UNKNOWN

§ Identity

Operator
Country
US
Launch date
2025-05-13
Launch site
AFETR
Launch vehicle
Mass (kg)
RCS (m²)

Purposes: comms

External: N2YO · Heavens-Above · Gunter

§ Orbital elements

Epoch: 2026-09-20T02:06:42.745536Z

Period
94.27 min
Inclination
43.0027°
Eccentricity
0.0001124
Mean motion
15.27591844 rev/d
Perigee alt
482.2 km
Apogee alt
483.8 km
Semi-major
6,861.2 km
B*
4.2004e-4
RAAN
158.6565°
Arg perigee
284.0644°
Mean anomaly
76.0082°
Rev number
7,705

§ Raw data

STARLINK-341591 63952U 25099A   26263.08799474  .00011318  00000+0  42004-3 0  99932 63952  43.0027 158.6565 0001124 284.0644  76.0082 15.27591844 77053

JSON: /api/v1/satellites/63952 · /tle

For live sub-satellite position, see the globe view (requires WebGL).

§ Visibility from observer

Set your observer location to see the next 7 days of passes ≥ 10°. The values pass through the URL so the page stays shareable.

No JS? Fill the form by hand. The geolocation button needs JavaScript.